Location: Carnières
(50.1682°N, 3.3474°E)
Time: 21:32:12
(UTC+00:00)

SL-16 R/B - Pass Details

Date: 09 August 2024
Orbit: 842 x 845 km, 71.0° (Epoch: 10 September)

Event Time Altitude Azimuth Distance (km) Brightness Sun altitude
Exits shadow 23:15:03 29° 104° (ESE) 1,498 3.3 -23.8°
Drops below altitude 10° 23:19:51 10° 47° (NE) 2,474 5.0 -24.0°
Sets 23:22:35 0° 36° (NE) 3,414 6.0 -24.0°
